Starlink 6368

operational
NORAD ID: 57234 Int'l Des: 2023-094 Owner: SPXS Country: US Constellation: starlink
LEOCIRCULAR

Über Starlink 6368

Beschreibung wird geladen...

Live-Position

3D-Globus wird geladen...

Nächste Überflüge

Höhenverlauf

Altitude vs Time

uPlot chart will show altitude changes over time

Zweizeiliger Elementsatz

1 57234U 23094S 26033.84849536 .00001255 00000-0 10794-3 0 9997
2 57234 43.0024 219.2386 0001309 270.1371 89.9321 15.02537691141884
Epoch: 2. Feb. 2026 • Age: 17 hours

Aktueller Status

Höhe 569.9 km
Geschwindigkeit 7.58 km/s
Subsatellitenpunkt -38.98°S, 120.1°E
Startdatum 7. Juli 2023
Alter 2.5 years
Typ internet

Technische Details

Klassifizierung Payload
Masse 305.00 kg
Trockenmasse 290.00 kg
Gesamtmasse 305.00 kg
Länge 0.20 m
Durchmesser 2.80 m
Spannweite 9.00 m
Form Box + pan
Hersteller SPXS
Bus-Typ Starlink
Phasenstatus In Orbit
Besitzer/Staat SPXS/US

Große Konstellationen

Loading constellations...